{"data":{"norad_id":56028,"intl_designator":"2023-042AU","name":"STARLINK-5779","alt_names":[],"object_type":"PAYLOAD","status":"ACTIVE","operator":null,"country":"US","launch_date":"2023-03-24","launch_site_code":"AFETR","launch_vehicle":null,"mission":null,"orbit_class":"UNKNOWN","rcs_meters":null,"size_class":null,"mass_kg":null,"dimensions":null,"purposes":["comms"],"wikipedia_slug":null,"has_3d_model":false,"image_url":null,"decayed_at":null,"tle_current":{"epoch":"2026-05-24T17:09:38.391552Z","epoch_age_seconds":92870,"freshness":"FRESH","line1":"1 56028U 23042AU  26144.71502768 -.00000210  00000+0  19035-5 0  9991","line2":"2 56028  43.0062 335.7738 0002127 246.3790 113.6839 15.27590108174660","mean_motion":15.27590108,"eccentricity":0.0002127,"inclination_deg":43.0062,"raan_deg":335.7738,"arg_perigee_deg":246.379,"mean_anomaly_deg":113.6839,"bstar":1.9035e-6,"rev_number":17466,"period_min":94.266124954509,"perigee_km":481.55946137334,"apogee_km":484.47819706309,"semimajor_km":6861.1558292182,"source":"CELESTRAK","updated_at":"2026-05-25T13:38:17.950110Z"}}}